Tracking 20093 objects as of 14-Dec-2019
HD Live streaming from Space Station
objects crossing your sky now

DELTA 1 DEB

Track DELTA 1 DEB now!
10-day predictions


NORAD ID: 37637
Int'l Code: 1978-026HY
Perigee: 868.5 km
Apogee: 977.9 km
Inclination: 98.7 °
Period: 103.3 minutes
Semi major axis: 7294 km
RCS: 0.0061 m2 (small)
Launch date: March 5, 1978
Source: United States (US)
Launch site: AIR FORCE WESTERN TEST RANGE (AFWTR)

Note: This is SATELLITE DEBRIS
aabbcc
Your satellite tracking list
Your tracking list is empty




NASA's NSSDC Master Catalog

Two Line Element Set (TLE):
1 37637U 78026HY  19347.75124707 +.00000176 +00000-0 +16201-3 0  9993
2 37637 098.7496 356.5855 0074973 279.9837 079.2870 13.93588972863794
Source of the keplerian elements: AFSPC